Location: *
(52.2090°N, 4.1550°W)
Time: 08:48:51
(UTC+00:00)

Meteor 1-26 Rocket - Pass Details

Date: 19 July 2019
Orbit: 818 x 917 km, 81.3° (Epoch: 21 August)

Event Time Altitude Azimuth Distance (km) Brightness Sun altitude
Rises 21:25:35 0° 348° (NNW) 3,468 8.6 -7.4°
Reaches altitude 10° 21:28:06 10° 351° (N) 2,511 7.7 -7.7°
Maximum altitude 21:33:45 64° 74° (ENE) 934 4.4 -8.2°
Drops below altitude 10° 21:39:13 10° 156° (SSE) 2,435 6.0 -8.8°
Enters shadow 21:39:14 10° 156° (SSE) 2,438 6.0 -8.8°
